Regional Weather Roundup
Issued by NWS

Home | Current Version | Previous Version | Text Only | Print | Product List | Glossary On
Versions: 1 2 3 4 5 6 7 8 9 10 11 12 13 14 15 16 17 18 19 20 21 22 23 24 25 26 27
000
ASUS44 KLIX 290711
RWRLA
LOUISIANA WEATHER ROUNDUP
NATIONAL WEATHER SERVICE NEW ORLEANS LA
200 AM CDT FRI JUL 29 2016

NOTE: "FAIR" INDICATES FEW OR NO CLOUDS BELOW 12,000 FEET WITH NO
      SIGNIFICANT WEATHER AND/OR OBSTRUCTIONS TO VISIBILITY.
      SKY/WX - SKY CONDITION AND SIGNIFICANT WEATHER.
      TMP - AIR TEMPERATURE.    DP   - DEWPOINT TEMPERATURE.
      RH  - RELATIVE HUMIDITY.  PRES - PRESSURE.
      HX  - HEAT INDEX.         WCI  - WIND CHILL INDEX.

*  THESE STATIONS ARE NOT NWS OR FAA STATIONS AND ARE NOT UNDER
   NWS QUALITY CONTROL.

LAZ040-048-061>063-065-066-069-290800-
SOUTHEAST LOUISIANA

CITY           SKY/WX    TMP DP  RH WIND       PRES   REMARKS
N.O. AUDUBON     N/A     81  76  84 MISG        N/A
N.O. INTL ARPT PTCLDY    82  72  71 CALM      30.02S
N.O. LAKEFRONT CLEAR     79  74  84 S3        30.02S
N.O. DOWNTOWN* PTSUNNY   83  74  74 CALM      30.03S
RESERVE*       FAIR      76  74  93 CALM      30.02S
SLIDELL        CLEAR     74  72  93 CALM      30.01F
BATON ROUGE    CLEAR     73  71  93 CALM      30.03S
BOOTHVILLE     CLEAR     81  76  84 SE6       30.01F
BELLE CHASSE   PTCLDY    76  74  93 CALM      30.01F
BOGALUSA*      FAIR      73  70  89 CALM      30.04S
GALLIANO*      MOSUNNY   71  71 100 CALM      30.01F FOG
NEW ROADS*     FAIR      73  72  95 CALM      30.02S
GONZALES*      FAIR      74  74 100 CALM      30.02S
HAMMOND*       CLEAR     72  70  94 CALM      30.02S
HOUMA*         PTCLDY    75  75  99 CALM      30.02S
PORT FOURCHON* MOSUNNY   84  77  79 S5        30.01S

$$

LAZ041-044-053-054-290800-
SOUTHWEST LOUISIANA

CITY           SKY/WX    TMP DP  RH WIND       PRES   REMARKS
LAKE CHARLES   PTCLDY    75  72  90 E3        30.01S
LAFAYETTE      PTCLDY    76  74  93 CALM      30.02F
PATTERSON      CLEAR     77  76  96 CALM      30.02S FOG
SALT POINT       N/A     80  77  90 CALM      30.00S
NEW IBERIA     CLEAR     77  74  90 E3        30.03S
CHENAULT AIRPK PTCLDY    73  72  95 CALM      30.02S

$$

LAZ027-028-290800-
CENTRAL LOUISIANA

CITY           SKY/WX    TMP DP  RH WIND       PRES   REMARKS
FORT POLK      CLEAR     72  71  96 S5        30.02S
ALEXANDRIA INT CLOUDY    72  72 100 CALM      30.00S
ALEXANDRIA     CLOUDY    73  73 100 CALM      30.02S

$$

LAZ001-002-290800-
NORTHWEST LOUISIANA

CITY           SKY/WX    TMP DP  RH WIND       PRES   REMARKS
SHREVEPORT     CLOUDY    73  72  96 CALM      29.99S
BARKSDALE AFB  PTCLDY    72  72 100 S8        29.99F
DTN SHREVEPORT PTCLDY    73  71  93 S7        29.99F

$$

LAZ014-016-290800-
NORTHEAST LOUISIANA

CITY           SKY/WX    TMP DP  RH WIND       PRES   REMARKS
MONROE         MOCLDY    73  73 100 CALM      30.01F
TALLULAH       MOCLDY    74  72  93 CALM      30.01S

$$





USA.gov is the U.S. government's official web portal to all federal, state and local government web resources and services.